Weather History for Grants-Milan, NM

Change the Weather History Date:

Monday, November 7, 2011

  Actual Average Record
Temperature  
Mean Temperature 34 °F -  
Max Temperature 46 °F 58 °F 75 °F (1980)
Min Temperature 21 °F 26 °F 9 °F (2008)
Degree Days  
Heating Degree Days 32    
Moisture  
Dew Point 23 °F    
Average Humidity 73    
Maximum Humidity 92    
Minimum Humidity 29    
Precipitation  
Precipitation 0.00 in - - ()
Sea Level Pressure  
Sea Level Pressure 29.93 in    
Wind  
Wind Speed 4 mph (SW)    
Max Wind Speed 18 mph    
Max Gust Speed 30 mph    
Averages and records for this station are not official NWS values.
T = Trace of Precipitation, MM = Missing Value Source: NWS Daily Summary

Daily Weather History Graph

Daily Weather History Graph

Search for Another Location

Airport:

Trip Planner

Search our weather history database for the weather conditions in past years. The results will help you decide how hot, cold, wet, or windy it might be!

Date:

Astronomy

Nov. 07, 2011 Rise Set
Actual Time 6:38 AM MST 5:11 PM MST
Civil Twilight 6:11 AM MST 5:38 PM MST
Nautical Twilight 5:41 AM MST 6:08 PM MST
Astronomical Twilight 5:11 AM MST 6:38 PM MST
Moon 3:20 PM MST (11/7) 3:48 AM MST (11/7)
Length of Visible Light 11h 26m
Length of Day
10h 33m
Waxing Gibbous, 92% of the Moon is Illuminated
Nov 7
Waxing Gibbous
Nov 10
Full
Nov 18
Last Quarter
Nov 24
New
Dec 2
First Quarter

Hourly Weather History & Observations

Time (MST) Temp. Windchill Dew Point Humidity Pressure Visibility Wind Dir Wind Speed Gust Speed Precip Events Conditions
12:53 AM 28.0 °F - 21.9 °F 78% 29.97 in - Calm Calm - N/A   Unknown
1:53 AM 28.0 °F - 23.0 °F 81% 29.96 in - Calm Calm - N/A   Unknown
2:53 AM 25.0 °F - 21.0 °F 85% 29.94 in - Calm Calm - N/A   Unknown
3:53 AM 21.9 °F - 19.0 °F 89% 29.95 in - Calm Calm - N/A   Unknown
4:53 AM 24.1 °F - 21.0 °F 88% 29.94 in - Calm Calm - N/A   Unknown
5:53 AM 25.0 °F - 21.0 °F 85% 29.95 in - Calm Calm - N/A   Unknown
6:53 AM 21.9 °F 14.5 °F 19.0 °F 89% 29.99 in - NNW 5.8 mph - N/A   Unknown
7:53 AM 30.0 °F - 24.1 °F 79% 29.95 in - Calm Calm - N/A   Unknown
8:53 AM 35.1 °F - 26.1 °F 70% 29.93 in - Calm Calm - N/A   Unknown
9:53 AM 39.0 °F 32.3 °F 26.1 °F 60% 29.90 in - SSE 10.4 mph - N/A   Unknown
10:53 AM 42.1 °F 37.1 °F 25.0 °F 51% 29.87 in - SSE 8.1 mph - N/A   Unknown
11:53 AM 44.1 °F 37.1 °F 24.1 °F 45% 29.82 in - SE 15.0 mph - N/A   Unknown
12:53 PM 46.9 °F - 16.0 °F 29% 29.79 in - SSW 13.8 mph 20.7 mph N/A   Unknown
1:53 PM 45.0 °F 38.2 °F 19.9 °F 37% 29.79 in - SSW 15.0 mph 21.9 mph N/A   Unknown
2:53 PM 39.0 °F 30.3 °F 28.9 °F 67% 29.87 in - WSW 16.1 mph 29.9 mph N/A   Unknown
3:53 PM 33.1 °F 21.9 °F 30.0 °F 89% 29.94 in - WSW 18.4 mph 23.0 mph N/A   Unknown
4:53 PM 32.0 °F - 27.0 °F 82% 29.95 in - Calm Calm - N/A   Unknown
5:53 PM 28.0 °F 22.8 °F 25.0 °F 88% 29.99 in - ESE 4.6 mph - N/A   Unknown
6:53 PM 27.0 °F - 25.0 °F 92% 30.03 in - Calm Calm - N/A   Unknown
7:53 PM 30.0 °F - 27.0 °F 88% 30.00 in - Calm Calm - N/A   Unknown
8:53 PM 30.0 °F 24.1 °F 24.1 °F 79% 29.98 in - West 5.8 mph - N/A   Unknown
9:53 PM 30.9 °F 26.2 °F 21.0 °F 67% 29.97 in - NW 4.6 mph - N/A   Unknown
10:53 PM 30.9 °F - 21.9 °F 69% 29.95 in - Calm Calm - N/A   Unknown
11:53 PM 30.0 °F 23.2 °F 23.0 °F 75% 29.96 in - WSW 6.9 mph - N/A   Unknown